This demonstration page uses our WeatherBlox Daily Observations layout. Learn more.

Left ArrowRight Arrow

Hourly Observations for March 1, 2015

Temp ( °F °C ) Dew Point ( °F °C ) Humidity (%) Winds ( mph kmh ) Pressure ( in mb ) Visibility ( mi km ) Precip ( " mm )
12:15 am 00:15 Cloudy 21 -6 21 -6 100 100 SSE 6 9 30.50 1033 2 2 N/A
12:35 am 00:35 Cloudy 21 -6 21 -6 100 100 SSE 8 13 30.48 1032 1 2 N/A
12:56 am 00:56 Cloudy 23 -5 N/A N/A SSE 7 11 30.48 1032 1 2 N/A
1:16 am 01:16 Cloudy 23 -5 N/A N/A SSE 7 11 30.48 1032 1 2 N/A
1:35 am 01:35 Cloudy 23 -5 N/A N/A SSE 6 9 30.48 1032 1 2 N/A
1:56 am 01:56 Cloudy 23 -5 N/A N/A SSE 8 13 30.48 1032 2 2 N/A
2:15 am 02:15 Cloudy 23 -5 N/A N/A SSE 6 9 30.48 1032 1 2 N/A
2:35 am 02:35 Cloudy 23 -5 N/A N/A SSE 5 7 30.48 1032 1 2 N/A
2:56 am 02:56 Cloudy 23 -5 N/A N/A N N/A 30.45 1031 1 2 N/A
3:15 am 03:15 Cloudy 23 -5 N/A N/A SSE 3 6 30.45 1031 1 2 N/A
3:35 am 03:35 Cloudy 23 -5 N/A N/A SE 3 6 30.45 1031 1 2 N/A
3:56 am 03:56 Cloudy 23 -5 N/A N/A N N/A 30.45 1031 1 2 N/A
4:15 am 04:15 Cloudy 23 -5 N/A N/A N N/A 30.42 1030 1 2 N/A
4:35 am 04:35 Cloudy 23 -5 N/A N/A N N/A 30.42 1030 1 2 N/A
4:56 am 04:56 Cloudy 23 -5 N/A N/A N N/A 30.45 1031 2 2 N/A
5:15 am 05:15 Cloudy 23 -5 N/A N/A N N/A 30.42 1030 2 2 N/A
5:36 am 05:36 Cloudy 23 -5 N/A N/A N N/A 30.45 1031 2 2 N/A
5:56 am 05:56 Cloudy 23 -5 N/A N/A N N/A 30.45 1031 2 3 N/A
6:15 am 06:15 Cloudy 23 -5 N/A N/A N N/A 30.42 1030 1 2 N/A
6:36 am 06:36 Cloudy 23 -5 N/A N/A N N/A 30.42 1030 2 2 N/A
6:55 am 06:55 Cloudy 23 -5 N/A N/A N N/A 30.42 1030 1 2 N/A
7:15 am 07:15 Cloudy 25 -4 N/A N/A N N/A 30.42 1030 1 2 N/A
7:36 am 07:36 Cloudy 25 -4 N/A N/A N N/A 30.42 1030 1 2 N/A
7:55 am 07:55 Cloudy 25 -4 N/A N/A N N/A 30.42 1030 1 1 N/A
8:15 am 08:15 Cloudy 25 -4 N/A N/A N N/A 30.42 1030 1 1 N/A
8:36 am 08:36 Cloudy 25 -4 N/A N/A N N/A 30.42 1030 1 1 N/A
8:55 am 08:55 Cloudy 25 -4 N/A N/A N N/A 30.42 1030 1 1 N/A
9:16 am 09:16 Cloudy 27 -3 N/A N/A N N/A 30.42 1030 1 1 N/A
9:36 am 09:36 Cloudy 27 -3 N/A N/A N N/A 30.42 1030 1 1 N/A
9:55 am 09:55 Cloudy 27 -3 27 -3 100 100 N N/A 30.42 1030 2 3 N/A
10:15 am 10:15 Cloudy 28 -2 28 -2 100 100 N N/A 30.36 1028 2 3 N/A
10:36 am 10:36 Cloudy 28 -2 27 -3 93 93 N N/A 30.36 1028 2 3 N/A
10:55 am 10:55 Cloudy 28 -2 25 -4 86 86 N N/A 30.39 1029 1 2 N/A
11:16 am 11:16 Cloudy 30 -1 25 -4 80 80 N N/A 30.36 1028 1 2 N/A
11:36 am 11:36 Cloudy 30 -1 23 -5 75 75 N N/A 30.36 1028 1 2 N/A
11:55 am 11:55 Cloudy 30 -1 25 -4 80 80 N N/A 30.36 1028 1 2 N/A
12:16 pm 12:16 Cloudy 32 undefined 25 -4 75 75 N N/A 30.36 1028 2 2 N/A
12:36 pm 12:36 Cloudy 32 undefined 25 -4 75 75 N N/A 30.36 1028 2 2 N/A
12:55 pm 12:55 Cloudy 32 undefined 25 -4 75 75 N 5 7 30.36 1028 2 3 N/A
1:16 pm 13:16 Cloudy 32 undefined 25 -4 75 75 NNE 5 7 30.33 1027 3 4 N/A
1:35 pm 13:35 Cloudy 30 -1 25 -4 80 80 NNE 6 9 30.33 1027 2 3 N/A
2:16 pm 14:16 Cloudy 32 undefined 23 -5 69 69 N 3 6 30.30 1026 3 4 N/A
2:35 pm 14:35 Cloudy 32 undefined 25 -4 75 75 N N/A 30.30 1026 2 3 N/A
2:55 pm 14:55 Cloudy 32 undefined 23 -5 69 69 N N/A 30.30 1026 2 3 N/A
3:16 pm 15:16 Cloudy 32 undefined 23 -5 69 69 N N/A 30.30 1026 3 4 N/A
3:35 pm 15:35 Cloudy 30 -1 23 -5 75 75 N 3 6 30.30 1026 4 6 N/A
3:55 pm 15:55 Cloudy 30 -1 25 -4 80 80 NNE 3 6 30.30 1026 5 8 N/A
4:16 pm 16:16 Cloudy 30 -1 25 -4 80 80 NNE 3 6 30.30 1026 7 11 N/A
4:35 pm 16:35 Cloudy 30 -1 23 -5 75 75 N N/A 30.30 1026 10 16 N/A
4:56 pm 16:56 Cloudy 30 -1 23 -5 75 75 N N/A 30.30 1026 10 16 N/A
5:16 pm 17:16 Cloudy 30 -1 25 -4 80 80 N N/A 30.30 1026 7 11 N/A
5:35 pm 17:35 Cloudy 30 -1 25 -4 80 80 N N/A 30.30 1026 10 16 N/A
5:56 pm 17:56 Cloudy 30 -1 27 -3 86 86 NNW 5 7 30.30 1026 10 16 N/A
6:16 pm 18:16 Cloudy 30 -1 27 -3 86 86 W 3 6 30.30 1026 7 11 N/A
6:35 pm 18:35 Cloudy 30 -1 28 -2 93 93 NW 5 7 30.30 1026 7 11 N/A
6:56 pm 18:56 Cloudy 30 -1 27 -3 86 86 WNW 6 9 30.33 1027 10 16 N/A
7:16 pm 19:16 Cloudy 30 -1 27 -3 86 86 NW 5 7 30.30 1026 7 11 N/A
7:35 pm 19:35 Cloudy 28 -2 25 -4 86 86 W 6 9 30.33 1027 10 16 N/A
7:56 pm 19:56 Cloudy 28 -2 23 -5 80 80 W 10 17 30.33 1027 10 16 N/A
8:16 pm 20:16 Cloudy 28 -2 21 -6 74 74 W 9 15 30.33 1027 10 16 N/A
8:35 pm 20:35 Cloudy 27 -3 21 -6 80 80 WNW 7 11 30.36 1028 10 16 N/A
8:56 pm 20:56 Cloudy 27 -3 21 -6 80 80 WNW 12 19 30.36 1028 10 16 N/A
9:15 pm 21:15 Mostly Cloudy 27 -3 19 -7 74 74 WNW 9 15 30.36 1028 10 16 N/A
9:35 pm 21:35 Mostly Cloudy 27 -3 19 -7 74 74 WNW 7 11 30.39 1029 10 16 N/A
9:56 pm 21:56 Partly Cloudy 27 -3 19 -7 74 74 WNW 9 15 30.39 1029 10 16 N/A
10:15 pm 22:15 Partly Cloudy 25 -4 18 -8 74 74 WNW 13 20 30.39 1029 10 16 N/A
10:35 pm 22:35 Mostly Cloudy 25 -4 18 -8 74 74 WNW 13 20 30.42 1030 10 16 N/A
10:56 pm 22:56 Cloudy 25 -4 18 -8 74 74 WNW 15 24 30.42 1030 10 16 N/A
11:15 pm 23:15 Partly Cloudy 25 -4 16 -9 69 69 WNW 13 20 30.42 1030 10 16 N/A
11:35 pm 23:35 Mostly Cloudy 23 -5 14 -10 68 68 NW 15 24 30.45 1031 10 16 N/A
11:56 pm 23:56 Mostly Cloudy 23 -5 14 -10 68 68 WNW 15 24 30.45 1031 10 16 N/A

Powered by AerisWeather